Location: Bh?mavarapp?du
(16.7041°N, 80.6518°E)
Time: 06:35:12
(UTC+00:00)

Atlas Centaur 2 - Pass Details

Date: 21 April 2021
Orbit: 459 x 1309 km, 30.4° (Epoch: 05 May)

Event Time Altitude Azimuth Distance (km) Brightness Sun altitude
Rises 14:11:32 0° 296° (WNW) 3,993 7.4 -18.6°
Reaches altitude 10° 14:14:13 10° 295° (WNW) 3,120 6.4 -19.2°
Maximum altitude 14:22:18 83° 208° (SSW) 1,300 3.1 -21.0°
Enters shadow 14:26:29 35° 124° (SE) 1,988 3.6 -22.0°
